owner,sensor,date,latitude,longitude,air_pressure(mBar),qcFlag 
TABS,ioos:station:wmo:42045:1,2009-07-01T00:00:00Z,26.2168,-96.4998,1007.59,11111222 
TABS,ioos:station:wmo:42045:1,2009-07-01T00:30:00Z,26.2168,-96.4998,1007.52,11111222 
TABS,ioos:station:wmo:42045:1,2009-07-01T01:00:00Z,26.2168,-96.4998,1007.64,11111222 
TABS,ioos:station:wmo:42045:1,2009-07-01T01:30:00Z,26.2168,-96.4998,1007.8,11111222 
TABS,ioos:station:wmo:42045:1,2009-07-01T02:00:00Z,26.2168,-96.4998,1008.19,11111222 
TABS,ioos:station:wmo:42045:1,2009-07-01T02:30:00Z,26.2168,-96.4998,1008.58,11111222 
TABS,ioos:station:wmo:42045:1,2009-07-01T03:00:00Z,26.2168,-96.4998,1008.88,11111222 
TABS,ioos:station:wmo:42045:1,2009-07-01T03:30:00Z,26.2168,-96.4998,1008.9,11111222 
TABS,ioos:station:wmo:42045:1,2009-07-01T04:00:00Z,26.2168,-96.4998,1009.61,11111222 
TABS,ioos:station:wmo:42045:1,2009-07-01T04:30:00Z,26.2168,-96.4998,1009.64,11111222 
TABS,ioos:station:wmo:42045:1,2009-07-01T05:00:00Z,26.2168,-96.4998,1009.35,11111222 
TABS,ioos:station:wmo:42045:1,2009-07-01T05:30:00Z,26.2168,-96.4998,1009.07,11111222 
TABS,ioos:station:wmo:42045:1,2009-07-01T06:00:00Z,26.2168,-96.4998,1008.82,11111222 
TABS,ioos:station:wmo:42045:1,2009-07-01T06:30:00Z,26.2168,-96.4998,1008.66,11111222 
TABS,ioos:station:wmo:42045:1,2009-07-01T07:00:00Z,26.2168,-96.4998,1008.65,11111222 
TABS,ioos:station:wmo:42045:1,2009-07-01T07:30:00Z,26.2168,-96.4998,1008.55,11111222 
TABS,ioos:station:wmo:42045:1,2009-07-01T08:00:00Z,26.2168,-96.4998,1008.31,11111222 
TABS,ioos:station:wmo:42045:1,2009-07-01T08:30:00Z,26.2168,-96.4998,1008.41,11111222 
TABS,ioos:station:wmo:42045:1,2009-07-01T09:00:00Z,26.2168,-96.4998,1008.42,11111222 
TABS,ioos:station:wmo:42045:1,2009-07-01T09:30:00Z,26.2168,-96.4998,1008.3,11111222 
TABS,ioos:station:wmo:42045:1,2009-07-01T10:00:00Z,26.2168,-96.4998,1008.58,11111222 
TABS,ioos:station:wmo:42045:1,2009-07-01T10:30:00Z,26.2168,-96.4998,1008.6,11111222 
TABS,ioos:station:wmo:42045:1,2009-07-01T11:00:00Z,26.2168,-96.4998,1009.25,11111222 
TABS,ioos:station:wmo:42045:1,2009-07-01T11:30:00Z,26.2168,-96.4998,1009.53,11111222 
TABS,ioos:station:wmo:42045:1,2009-07-01T12:00:00Z,26.2168,-96.4998,1009.96,11111222 
TABS,ioos:station:wmo:42045:1,2009-07-01T12:30:00Z,26.2168,-96.4998,1010.37,11111222 
TABS,ioos:station:wmo:42045:1,2009-07-01T13:00:00Z,26.2168,-96.4998,1010.69,11111222 
TABS,ioos:station:wmo:42045:1,2009-07-01T13:30:00Z,26.2168,-96.4998,1011.05,11111222 
TABS,ioos:station:wmo:42045:1,2009-07-01T14:00:00Z,26.2168,-96.4998,1011.02,11111222 
TABS,ioos:station:wmo:42045:1,2009-07-01T14:30:00Z,26.2168,-96.4998,1011.24,11111222 
TABS,ioos:station:wmo:42045:1,2009-07-01T15:00:00Z,26.2168,-96.4998,1011.17,11111222 
TABS,ioos:station:wmo:42045:1,2009-07-01T15:30:00Z,26.2168,-96.4998,1011.21,11111222 
TABS,ioos:station:wmo:42045:1,2009-07-01T16:00:00Z,26.2168,-96.4998,1011.41,11111222 
TABS,ioos:station:wmo:42045:1,2009-07-01T16:30:00Z,26.2168,-96.4998,1011.66,11111222 
TABS,ioos:station:wmo:42045:1,2009-07-01T17:00:00Z,26.2168,-96.4998,1011.83,11111222 
TABS,ioos:station:wmo:42045:1,2009-07-01T17:30:00Z,26.2168,-96.4998,1011.55,11111222 
TABS,ioos:station:wmo:42045:1,2009-07-01T18:00:00Z,26.2168,-96.4998,1011.15,11111222 
TABS,ioos:station:wmo:42045:1,2009-07-01T18:30:00Z,26.2168,-96.4998,1011.08,11111222 
TABS,ioos:station:wmo:42045:1,2009-07-01T19:00:00Z,26.2168,-96.4998,1010.76,11111222 
TABS,ioos:station:wmo:42045:1,2009-07-01T19:30:00Z,26.2168,-96.4998,1010.57,11111222 
TABS,ioos:station:wmo:42045:1,2009-07-01T20:00:00Z,26.2168,-96.4998,1010.6,11111222 
TABS,ioos:station:wmo:42045:1,2009-07-01T20:30:00Z,26.2168,-96.4998,1010.4,11111222 
TABS,ioos:station:wmo:42045:1,2009-07-01T21:00:00Z,26.2168,-96.4998,1010.27,11111222 
TABS,ioos:station:wmo:42045:1,2009-07-01T21:30:00Z,26.2168,-96.4998,1010.0,11111222 
TABS,ioos:station:wmo:42045:1,2009-07-01T22:00:00Z,26.2168,-96.4998,1009.82,11111222 
TABS,ioos:station:wmo:42045:1,2009-07-01T22:30:00Z,26.2168,-96.4998,1009.63,11111222 
TABS,ioos:station:wmo:42045:1,2009-07-01T23:00:00Z,26.2168,-96.4998,1009.56,11111222 
TABS,ioos:station:wmo:42045:1,2009-07-01T23:30:00Z,26.2168,-96.4998,1009.5,11111222 
TABS,ioos:station:wmo:42045:1,2009-07-02T00:00:00Z,26.2168,-96.4998,1009.57,11111222 
TABS,ioos:station:wmo:42045:1,2009-07-02T00:30:00Z,26.2168,-96.4998,1009.73,11111222 
TABS,ioos:station:wmo:42045:1,2009-07-02T01:00:00Z,26.2168,-96.4998,1009.88,11111222 
TABS,ioos:station:wmo:42045:1,2009-07-02T01:30:00Z,26.2168,-96.4998,1010.28,11111222 
TABS,ioos:station:wmo:42045:1,2009-07-02T02:00:00Z,26.2168,-96.4998,1010.65,11111222 
TABS,ioos:station:wmo:42045:1,2009-07-02T02:30:00Z,26.2168,-96.4998,1010.75,11111222 
TABS,ioos:station:wmo:42045:1,2009-07-02T03:00:00Z,26.2168,-96.4998,1010.94,11111222 
TABS,ioos:station:wmo:42045:1,2009-07-02T03:30:00Z,26.2168,-96.4998,1011.27,11111222 
TABS,ioos:station:wmo:42045:1,2009-07-02T04:00:00Z,26.2168,-96.4998,1011.64,11111222 
TABS,ioos:station:wmo:42045:1,2009-07-02T04:30:00Z,26.2168,-96.4998,1011.83,11111222 
TABS,ioos:station:wmo:42045:1,2009-07-02T05:00:00Z,26.2168,-96.4998,1012.0,11111222 
TABS,ioos:station:wmo:42045:1,2009-07-02T05:30:00Z,26.2168,-96.4998,1012.05,11111222 
TABS,ioos:station:wmo:42045:1,2009-07-02T06:00:00Z,26.2168,-96.4998,1011.99,11111222 
TABS,ioos:station:wmo:42045:1,2009-07-02T06:30:00Z,26.2168,-96.4998,1011.76,11111222 
TABS,ioos:station:wmo:42045:1,2009-07-02T07:00:00Z,26.2168,-96.4998,1011.43,11111222 
TABS,ioos:station:wmo:42045:1,2009-07-02T07:30:00Z,26.2168,-96.4998,1011.14,11111222 
TABS,ioos:station:wmo:42045:1,2009-07-02T08:00:00Z,26.2168,-96.4998,1010.95,11111222 
TABS,ioos:station:wmo:42045:1,2009-07-02T08:30:00Z,26.2168,-96.4998,1010.98,11111222 
TABS,ioos:station:wmo:42045:1,2009-07-02T09:00:00Z,26.2168,-96.4998,1010.99,11111222 
TABS,ioos:station:wmo:42045:1,2009-07-02T09:30:00Z,26.2168,-96.4998,1011.07,11111222 
TABS,ioos:station:wmo:42045:1,2009-07-02T10:00:00Z,26.2168,-96.4998,1011.08,11111222 
TABS,ioos:station:wmo:42045:1,2009-07-02T10:30:00Z,26.2168,-96.4998,1011.22,11111222 
TABS,ioos:station:wmo:42045:1,2009-07-02T11:00:00Z,26.2168,-96.4998,1011.38,11111222 
TABS,ioos:station:wmo:42045:1,2009-07-02T11:30:00Z,26.2168,-96.4998,1011.83,11111222 
TABS,ioos:station:wmo:42045:1,2009-07-02T12:00:00Z,26.2168,-96.4998,1012.33,11111222 
TABS,ioos:station:wmo:42045:1,2009-07-02T12:30:00Z,26.2168,-96.4998,1012.71,11111222 
TABS,ioos:station:wmo:42045:1,2009-07-02T13:00:00Z,26.2168,-96.4998,1013.26,11111222 
TABS,ioos:station:wmo:42045:1,2009-07-02T13:30:00Z,26.2168,-96.4998,1013.77,11111222 
TABS,ioos:station:wmo:42045:1,2009-07-02T14:00:00Z,26.2168,-96.4998,1013.88,11111222 
TABS,ioos:station:wmo:42045:1,2009-07-02T14:30:00Z,26.2168,-96.4998,1013.95,11111222 
TABS,ioos:station:wmo:42045:1,2009-07-02T15:00:00Z,26.2168,-96.4998,1014.42,11111222 
TABS,ioos:station:wmo:42045:1,2009-07-02T15:30:00Z,26.2168,-96.4998,1014.49,11111222 
TABS,ioos:station:wmo:42045:1,2009-07-02T16:00:00Z,26.2168,-96.4998,1014.89,11111222 
TABS,ioos:station:wmo:42045:1,2009-07-02T16:30:00Z,26.2168,-96.4998,1015.01,11111222 
TABS,ioos:station:wmo:42045:1,2009-07-02T17:00:00Z,26.2168,-96.4998,1014.88,11111222 
TABS,ioos:station:wmo:42045:1,2009-07-02T17:30:00Z,26.2168,-96.4998,1014.78,11111222 
TABS,ioos:station:wmo:42045:1,2009-07-02T18:00:00Z,26.2168,-96.4998,1014.78,11111222 
TABS,ioos:station:wmo:42045:1,2009-07-02T18:30:00Z,26.2168,-96.4998,1014.68,11111222 
TABS,ioos:station:wmo:42045:1,2009-07-02T19:00:00Z,26.2168,-96.4998,1014.62,11111222 
TABS,ioos:station:wmo:42045:1,2009-07-02T19:30:00Z,26.2168,-96.4998,1014.6,11111222 
TABS,ioos:station:wmo:42045:1,2009-07-02T20:00:00Z,26.2168,-96.4998,1014.55,11111222 
TABS,ioos:station:wmo:42045:1,2009-07-02T20:30:00Z,26.2168,-96.4998,1014.67,11111222 
TABS,ioos:station:wmo:42045:1,2009-07-02T21:00:00Z,26.2168,-96.4998,1014.35,11111222 
TABS,ioos:station:wmo:42045:1,2009-07-02T21:30:00Z,26.2168,-96.4998,1013.88,11111222 
TABS,ioos:station:wmo:42045:1,2009-07-02T22:00:00Z,26.2168,-96.4998,1013.62,11111222 
TABS,ioos:station:wmo:42045:1,2009-07-02T22:30:00Z,26.2168,-96.4998,1013.24,11111222 
TABS,ioos:station:wmo:42045:1,2009-07-02T23:00:00Z,26.2168,-96.4998,1013.02,11111222 
TABS,ioos:station:wmo:42045:1,2009-07-02T23:30:00Z,26.2168,-96.4998,1013.02,11111222 
TABS,ioos:station:wmo:42045:1,2009-07-03T00:00:00Z,26.2168,-96.4998,1012.92,11111222 
TABS,ioos:station:wmo:42045:1,2009-07-03T00:30:00Z,26.2168,-96.4998,1013.15,11111222 
TABS,ioos:station:wmo:42045:1,2009-07-03T01:00:00Z,26.2168,-96.4998,1013.48,11111222 
TABS,ioos:station:wmo:42045:1,2009-07-03T01:30:00Z,26.2168,-96.4998,1013.54,11111222 
TABS,ioos:station:wmo:42045:1,2009-07-03T02:00:00Z,26.2168,-96.4998,1013.84,11111222 
TABS,ioos:station:wmo:42045:1,2009-07-03T02:30:00Z,26.2168,-96.4998,1014.0,11111222 
TABS,ioos:station:wmo:42045:1,2009-07-03T03:00:00Z,26.2168,-96.4998,1014.12,11111222 
TABS,ioos:station:wmo:42045:1,2009-07-03T03:30:00Z,26.2168,-96.4998,1014.55,11111222 
TABS,ioos:station:wmo:42045:1,2009-07-03T04:00:00Z,26.2168,-96.4998,1014.73,11111222 
TABS,ioos:station:wmo:42045:1,2009-07-03T04:30:00Z,26.2168,-96.4998,1015.08,11111222 
TABS,ioos:station:wmo:42045:1,2009-07-03T05:00:00Z,26.2168,-96.4998,1014.99,11111222 
TABS,ioos:station:wmo:42045:1,2009-07-03T05:30:00Z,26.2168,-96.4998,1014.9,11111222 
TABS,ioos:station:wmo:42045:1,2009-07-03T06:00:00Z,26.2168,-96.4998,1014.81,11111222 
TABS,ioos:station:wmo:42045:1,2009-07-03T06:30:00Z,26.2168,-96.4998,1014.8,11111222 
TABS,ioos:station:wmo:42045:1,2009-07-03T07:00:00Z,26.2168,-96.4998,1014.76,11111222 
TABS,ioos:station:wmo:42045:1,2009-07-03T07:30:00Z,26.2168,-96.4998,1014.65,11111222 
TABS,ioos:station:wmo:42045:1,2009-07-03T08:00:00Z,26.2168,-96.4998,1014.58,11111222 
TABS,ioos:station:wmo:42045:1,2009-07-03T08:30:00Z,26.2168,-96.4998,1014.54,11111222 
TABS,ioos:station:wmo:42045:1,2009-07-03T09:00:00Z,26.2168,-96.4998,1014.62,11111222 
TABS,ioos:station:wmo:42045:1,2009-07-03T09:30:00Z,26.2168,-96.4998,1014.88,11111222 
TABS,ioos:station:wmo:42045:1,2009-07-03T10:00:00Z,26.2168,-96.4998,1015.09,11111222 
TABS,ioos:station:wmo:42045:1,2009-07-03T10:30:00Z,26.2168,-96.4998,1015.02,11111222 
TABS,ioos:station:wmo:42045:1,2009-07-03T11:00:00Z,26.2168,-96.4998,1015.26,11111222 
TABS,ioos:station:wmo:42045:1,2009-07-03T11:30:00Z,26.2168,-96.4998,1015.71,11111222 
TABS,ioos:station:wmo:42045:1,2009-07-03T12:00:00Z,26.2168,-96.4998,1015.82,11111222 
TABS,ioos:station:wmo:42045:1,2009-07-03T12:30:00Z,26.2168,-96.4998,1016.06,11111222 
TABS,ioos:station:wmo:42045:1,2009-07-03T13:00:00Z,26.2168,-96.4998,1016.51,11111222 
TABS,ioos:station:wmo:42045:1,2009-07-03T13:30:00Z,26.2168,-96.4998,1016.86,11111222 
TABS,ioos:station:wmo:42045:1,2009-07-03T14:00:00Z,26.2168,-96.4998,1017.03,11111222 
TABS,ioos:station:wmo:42045:1,2009-07-03T14:30:00Z,26.2168,-96.4998,1016.94,11111222 
TABS,ioos:station:wmo:42045:1,2009-07-03T15:00:00Z,26.2168,-96.4998,1017.32,11111222 
TABS,ioos:station:wmo:42045:1,2009-07-03T15:30:00Z,26.2168,-96.4998,1017.49,11111222 
TABS,ioos:station:wmo:42045:1,2009-07-03T16:00:00Z,26.2168,-96.4998,1017.67,11111222 
TABS,ioos:station:wmo:42045:1,2009-07-03T16:30:00Z,26.2168,-96.4998,1017.91,11111222 
TABS,ioos:station:wmo:42045:1,2009-07-03T17:00:00Z,26.2168,-96.4998,1017.89,11111222 
TABS,ioos:station:wmo:42045:1,2009-07-03T17:30:00Z,26.2168,-96.4998,1017.4,11111222 
TABS,ioos:station:wmo:42045:1,2009-07-03T18:00:00Z,26.2168,-96.4998,1017.04,11111222 
TABS,ioos:station:wmo:42045:1,2009-07-03T18:30:00Z,26.2168,-96.4998,1016.81,11111222 
TABS,ioos:station:wmo:42045:1,2009-07-03T19:00:00Z,26.2168,-96.4998,1016.68,11111222 
TABS,ioos:station:wmo:42045:1,2009-07-03T19:30:00Z,26.2168,-96.4998,1016.34,11111222 
TABS,ioos:station:wmo:42045:1,2009-07-03T20:00:00Z,26.2168,-96.4998,1016.18,11111222 
TABS,ioos:station:wmo:42045:1,2009-07-03T20:30:00Z,26.2168,-96.4998,1015.85,11111222 
TABS,ioos:station:wmo:42045:1,2009-07-03T21:00:00Z,26.2168,-96.4998,1015.88,11111222 
TABS,ioos:station:wmo:42045:1,2009-07-03T21:30:00Z,26.2168,-96.4998,1015.73,11111222 
TABS,ioos:station:wmo:42045:1,2009-07-03T22:00:00Z,26.2168,-96.4998,1015.59,11111222 
TABS,ioos:station:wmo:42045:1,2009-07-03T22:30:00Z,26.2168,-96.4998,1015.48,11111222 
TABS,ioos:station:wmo:42045:1,2009-07-03T23:00:00Z,26.2168,-96.4998,1015.27,11111222 
TABS,ioos:station:wmo:42045:1,2009-07-03T23:30:00Z,26.2168,-96.4998,1015.33,11111222 
TABS,ioos:station:wmo:42045:1,2009-07-04T00:00:00Z,26.2168,-96.4998,1015.15,11111222 
TABS,ioos:station:wmo:42045:1,2009-07-04T00:30:00Z,26.2168,-96.4998,1015.09,11111222 
TABS,ioos:station:wmo:42045:1,2009-07-04T01:00:00Z,26.2168,-96.4998,1015.25,11111222 
TABS,ioos:station:wmo:42045:1,2009-07-04T01:30:00Z,26.2168,-96.4998,1015.41,11111222 
TABS,ioos:station:wmo:42045:1,2009-07-04T02:00:00Z,26.2168,-96.4998,1015.75,11111222 
TABS,ioos:station:wmo:42045:1,2009-07-04T02:30:00Z,26.2168,-96.4998,1015.71,11111222 
TABS,ioos:station:wmo:42045:1,2009-07-04T03:00:00Z,26.2168,-96.4998,1015.82,11111222 
TABS,ioos:station:wmo:42045:1,2009-07-04T03:30:00Z,26.2168,-96.4998,1016.1,11111222 
TABS,ioos:station:wmo:42045:1,2009-07-04T04:00:00Z,26.2168,-96.4998,1016.19,11111222 
TABS,ioos:station:wmo:42045:1,2009-07-04T04:30:00Z,26.2168,-96.4998,1016.15,11111222 
TABS,ioos:station:wmo:42045:1,2009-07-04T05:00:00Z,26.2168,-96.4998,1016.05,11111222 
TABS,ioos:station:wmo:42045:1,2009-07-04T05:30:00Z,26.2168,-96.4998,1016.1,11111222 
TABS,ioos:station:wmo:42045:1,2009-07-04T06:00:00Z,26.2168,-96.4998,1016.16,11111222 
TABS,ioos:station:wmo:42045:1,2009-07-04T06:30:00Z,26.2168,-96.4998,1015.81,11111222 
TABS,ioos:station:wmo:42045:1,2009-07-04T07:00:00Z,26.2168,-96.4998,1015.67,11111222 
TABS,ioos:station:wmo:42045:1,2009-07-04T07:30:00Z,26.2168,-96.4998,1016.0,11111222 
TABS,ioos:station:wmo:42045:1,2009-07-04T08:00:00Z,26.2168,-96.4998,1016.05,11111222 
TABS,ioos:station:wmo:42045:1,2009-07-04T08:30:00Z,26.2168,-96.4998,1016.03,11111222 
TABS,ioos:station:wmo:42045:1,2009-07-04T09:00:00Z,26.2168,-96.4998,1015.95,11111222 
TABS,ioos:station:wmo:42045:1,2009-07-04T09:30:00Z,26.2168,-96.4998,1015.88,11111222 
TABS,ioos:station:wmo:42045:1,2009-07-04T10:00:00Z,26.2168,-96.4998,1015.61,11111222 
TABS,ioos:station:wmo:42045:1,2009-07-04T10:30:00Z,26.2168,-96.4998,1015.76,11111222 
TABS,ioos:station:wmo:42045:1,2009-07-04T11:00:00Z,26.2168,-96.4998,1015.77,11111222 
TABS,ioos:station:wmo:42045:1,2009-07-04T11:30:00Z,26.2168,-96.4998,1016.21,11111222 
TABS,ioos:station:wmo:42045:1,2009-07-04T12:00:00Z,26.2168,-96.4998,1016.13,11111222 
TABS,ioos:station:wmo:42045:1,2009-07-04T12:30:00Z,26.2168,-96.4998,1016.58,11111222 
TABS,ioos:station:wmo:42045:1,2009-07-04T13:00:00Z,26.2168,-96.4998,1016.92,11111222 
TABS,ioos:station:wmo:42045:1,2009-07-04T13:30:00Z,26.2168,-96.4998,1017.02,11111222 
TABS,ioos:station:wmo:42045:1,2009-07-04T14:00:00Z,26.2168,-96.4998,1017.13,11111222 
TABS,ioos:station:wmo:42045:1,2009-07-04T14:30:00Z,26.2168,-96.4998,1017.22,11111222 
TABS,ioos:station:wmo:42045:1,2009-07-04T15:00:00Z,26.2168,-96.4998,1017.11,11111222 
TABS,ioos:station:wmo:42045:1,2009-07-04T15:30:00Z,26.2168,-96.4998,1016.97,11111222 
TABS,ioos:station:wmo:42045:1,2009-07-04T16:00:00Z,26.2168,-96.4998,1017.03,11111222 
TABS,ioos:station:wmo:42045:1,2009-07-04T16:30:00Z,26.2168,-96.4998,1016.71,11111222 
TABS,ioos:station:wmo:42045:1,2009-07-04T17:00:00Z,26.2168,-96.4998,1016.78,11111222 
TABS,ioos:station:wmo:42045:1,2009-07-04T17:30:00Z,26.2168,-96.4998,1016.35,11111222 
TABS,ioos:station:wmo:42045:1,2009-07-04T18:00:00Z,26.2168,-96.4998,1015.75,11111222 
TABS,ioos:station:wmo:42045:1,2009-07-04T18:30:00Z,26.2168,-96.4998,1015.91,11111222 
TABS,ioos:station:wmo:42045:1,2009-07-04T19:00:00Z,26.2168,-96.4998,1015.79,11111222 
TABS,ioos:station:wmo:42045:1,2009-07-04T19:30:00Z,26.2168,-96.4998,1015.33,11111222 
TABS,ioos:station:wmo:42045:1,2009-07-04T20:00:00Z,26.2168,-96.4998,1015.01,11111222 
TABS,ioos:station:wmo:42045:1,2009-07-04T20:30:00Z,26.2168,-96.4998,1014.83,11111222 
TABS,ioos:station:wmo:42045:1,2009-07-04T21:00:00Z,26.2168,-96.4998,1014.95,11111222 
TABS,ioos:station:wmo:42045:1,2009-07-04T21:30:00Z,26.2168,-96.4998,1014.63,11111222 
TABS,ioos:station:wmo:42045:1,2009-07-04T22:00:00Z,26.2168,-96.4998,1014.47,11111222 
TABS,ioos:station:wmo:42045:1,2009-07-04T22:30:00Z,26.2168,-96.4998,1013.98,11111222 
TABS,ioos:station:wmo:42045:1,2009-07-04T23:00:00Z,26.2168,-96.4998,1013.5,11111222 
TABS,ioos:station:wmo:42045:1,2009-07-04T23:30:00Z,26.2168,-96.4998,1013.4,11111222 
TABS,ioos:station:wmo:42045:1,2009-07-05T00:00:00Z,26.2168,-96.4998,1012.95,11111222 
TABS,ioos:station:wmo:42045:1,2009-07-05T00:30:00Z,26.2168,-96.4998,1012.91,11111222 
TABS,ioos:station:wmo:42045:1,2009-07-05T01:00:00Z,26.2168,-96.4998,1012.88,11111222 
TABS,ioos:station:wmo:42045:1,2009-07-05T01:30:00Z,26.2168,-96.4998,1012.79,11111222 
TABS,ioos:station:wmo:42045:1,2009-07-05T02:00:00Z,26.2168,-96.4998,1012.85,11111222 
TABS,ioos:station:wmo:42045:1,2009-07-05T02:30:00Z,26.2168,-96.4998,1013.14,11111222 
TABS,ioos:station:wmo:42045:1,2009-07-05T03:00:00Z,26.2168,-96.4998,1013.45,11111222 
TABS,ioos:station:wmo:42045:1,2009-07-05T03:30:00Z,26.2168,-96.4998,1013.91,11111222 
TABS,ioos:station:wmo:42045:1,2009-07-05T04:00:00Z,26.2168,-96.4998,1014.15,11111222 
TABS,ioos:station:wmo:42045:1,2009-07-05T04:30:00Z,26.2168,-96.4998,1014.46,11111222 
TABS,ioos:station:wmo:42045:1,2009-07-05T05:00:00Z,26.2168,-96.4998,1014.5,11111222 
TABS,ioos:station:wmo:42045:1,2009-07-05T05:30:00Z,26.2168,-96.4998,1014.54,11111222 
TABS,ioos:station:wmo:42045:1,2009-07-05T06:00:00Z,26.2168,-96.4998,1014.46,11111222 
TABS,ioos:station:wmo:42045:1,2009-07-05T06:30:00Z,26.2168,-96.4998,1014.19,11111222 
TABS,ioos:station:wmo:42045:1,2009-07-05T07:00:00Z,26.2168,-96.4998,1014.31,11111222 
TABS,ioos:station:wmo:42045:1,2009-07-05T07:30:00Z,26.2168,-96.4998,1014.09,11111222 
TABS,ioos:station:wmo:42045:1,2009-07-05T08:00:00Z,26.2168,-96.4998,1013.66,11111222 
TABS,ioos:station:wmo:42045:1,2009-07-05T08:30:00Z,26.2168,-96.4998,1013.3,11111222 
TABS,ioos:station:wmo:42045:1,2009-07-05T09:00:00Z,26.2168,-96.4998,1013.39,11111222 
TABS,ioos:station:wmo:42045:1,2009-07-05T09:30:00Z,26.2168,-96.4998,1013.39,11111222 
TABS,ioos:station:wmo:42045:1,2009-07-05T10:00:00Z,26.2168,-96.4998,1013.29,11111222 
TABS,ioos:station:wmo:42045:1,2009-07-05T10:30:00Z,26.2168,-96.4998,1013.48,11111222 
TABS,ioos:station:wmo:42045:1,2009-07-05T11:00:00Z,26.2168,-96.4998,1013.71,11111222 
TABS,ioos:station:wmo:42045:1,2009-07-05T11:30:00Z,26.2168,-96.4998,1013.64,11111222 
TABS,ioos:station:wmo:42045:1,2009-07-05T12:00:00Z,26.2168,-96.4998,1013.64,11111222 
TABS,ioos:station:wmo:42045:1,2009-07-05T12:30:00Z,26.2168,-96.4998,1013.53,11111222 
TABS,ioos:station:wmo:42045:1,2009-07-05T13:00:00Z,26.2168,-96.4998,1013.71,11111222 
TABS,ioos:station:wmo:42045:1,2009-07-05T13:30:00Z,26.2168,-96.4998,1013.99,11111222 
TABS,ioos:station:wmo:42045:1,2009-07-05T14:00:00Z,26.2168,-96.4998,1013.75,11111222 
TABS,ioos:station:wmo:42045:1,2009-07-05T14:30:00Z,26.2168,-96.4998,1013.61,11111222 
TABS,ioos:station:wmo:42045:1,2009-07-05T15:00:00Z,26.2168,-96.4998,1013.83,11111222 
TABS,ioos:station:wmo:42045:1,2009-07-05T15:30:00Z,26.2168,-96.4998,1013.87,11111222 
TABS,ioos:station:wmo:42045:1,2009-07-05T16:00:00Z,26.2168,-96.4998,1013.97,11111222 
TABS,ioos:station:wmo:42045:1,2009-07-05T16:30:00Z,26.2168,-96.4998,1014.04,11111222 
TABS,ioos:station:wmo:42045:1,2009-07-05T17:00:00Z,26.2168,-96.4998,1014.14,11111222 
TABS,ioos:station:wmo:42045:1,2009-07-05T17:30:00Z,26.2168,-96.4998,1013.93,11111222 
TABS,ioos:station:wmo:42045:1,2009-07-05T18:00:00Z,26.2168,-96.4998,1013.55,11111222 
TABS,ioos:station:wmo:42045:1,2009-07-05T18:30:00Z,26.2168,-96.4998,1013.14,11111222 
TABS,ioos:station:wmo:42045:1,2009-07-05T19:00:00Z,26.2168,-96.4998,1013.15,11111222 
TABS,ioos:station:wmo:42045:1,2009-07-05T19:30:00Z,26.2168,-96.4998,1012.93,11111222 
TABS,ioos:station:wmo:42045:1,2009-07-05T20:00:00Z,26.2168,-96.4998,1012.76,11111222 
TABS,ioos:station:wmo:42045:1,2009-07-05T20:30:00Z,26.2168,-96.4998,1012.58,11111222 
TABS,ioos:station:wmo:42045:1,2009-07-05T21:00:00Z,26.2168,-96.4998,1012.47,11111222 
TABS,ioos:station:wmo:42045:1,2009-07-05T21:30:00Z,26.2168,-96.4998,1012.47,11111222 
TABS,ioos:station:wmo:42045:1,2009-07-05T22:00:00Z,26.2168,-96.4998,1012.33,11111222 
TABS,ioos:station:wmo:42045:1,2009-07-05T22:30:00Z,26.2168,-96.4998,1012.04,11111222 
TABS,ioos:station:wmo:42045:1,2009-07-05T23:00:00Z,26.2168,-96.4998,1011.96,11111222 
TABS,ioos:station:wmo:42045:1,2009-07-05T23:30:00Z,26.2168,-96.4998,1011.49,11111222 
TABS,ioos:station:wmo:42045:1,2009-07-06T00:00:00Z,26.2168,-96.4998,1011.16,11111222 
TABS,ioos:station:wmo:42045:1,2009-07-06T00:30:00Z,26.2168,-96.4998,1010.82,11111222 
TABS,ioos:station:wmo:42045:1,2009-07-06T01:00:00Z,26.2168,-96.4998,1010.88,11111222 
TABS,ioos:station:wmo:42045:1,2009-07-06T01:30:00Z,26.2168,-96.4998,1011.19,11111222 
TABS,ioos:station:wmo:42045:1,2009-07-06T02:00:00Z,26.2168,-96.4998,1011.38,11111222 
TABS,ioos:station:wmo:42045:1,2009-07-06T02:30:00Z,26.2168,-96.4998,1011.67,11111222 
TABS,ioos:station:wmo:42045:1,2009-07-06T03:00:00Z,26.2168,-96.4998,1011.8,11111222 
TABS,ioos:station:wmo:42045:1,2009-07-06T03:30:00Z,26.2168,-96.4998,1012.31,11111222 
TABS,ioos:station:wmo:42045:1,2009-07-06T04:00:00Z,26.2168,-96.4998,1012.54,11111222 
TABS,ioos:station:wmo:42045:1,2009-07-06T04:30:00Z,26.2168,-96.4998,1012.53,11111222 
TABS,ioos:station:wmo:42045:1,2009-07-06T05:00:00Z,26.2168,-96.4998,1012.52,11111222 
TABS,ioos:station:wmo:42045:1,2009-07-06T05:30:00Z,26.2168,-96.4998,1012.48,11111222 
TABS,ioos:station:wmo:42045:1,2009-07-06T06:00:00Z,26.2168,-96.4998,1012.34,11111222 
TABS,ioos:station:wmo:42045:1,2009-07-06T06:30:00Z,26.2168,-96.4998,1012.01,11111222 
TABS,ioos:station:wmo:42045:1,2009-07-06T07:00:00Z,26.2168,-96.4998,1011.59,11111222 
TABS,ioos:station:wmo:42045:1,2009-07-06T07:30:00Z,26.2168,-96.4998,1011.59,11111222 
TABS,ioos:station:wmo:42045:1,2009-07-06T08:00:00Z,26.2168,-96.4998,1011.56,11111222 
TABS,ioos:station:wmo:42045:1,2009-07-06T08:30:00Z,26.2168,-96.4998,1011.64,11111222 
TABS,ioos:station:wmo:42045:1,2009-07-06T09:00:00Z,26.2168,-96.4998,1011.63,11111222 
TABS,ioos:station:wmo:42045:1,2009-07-06T09:30:00Z,26.2168,-96.4998,1011.52,11111222 
TABS,ioos:station:wmo:42045:1,2009-07-06T10:00:00Z,26.2168,-96.4998,1011.51,11111222 
TABS,ioos:station:wmo:42045:1,2009-07-06T10:30:00Z,26.2168,-96.4998,1011.15,11111222 
TABS,ioos:station:wmo:42045:1,2009-07-06T11:00:00Z,26.2168,-96.4998,1011.16,11111222 
TABS,ioos:station:wmo:42045:1,2009-07-06T11:30:00Z,26.2168,-96.4998,1011.34,11111222 
TABS,ioos:station:wmo:42045:1,2009-07-06T12:00:00Z,26.2168,-96.4998,1011.27,11111222 
TABS,ioos:station:wmo:42045:1,2009-07-06T12:30:00Z,26.2168,-96.4998,1011.43,11111222 
TABS,ioos:station:wmo:42045:1,2009-07-06T13:00:00Z,26.2168,-96.4998,1011.59,11111222 
TABS,ioos:station:wmo:42045:1,2009-07-06T13:30:00Z,26.2168,-96.4998,1011.78,11111222 
TABS,ioos:station:wmo:42045:1,2009-07-06T14:00:00Z,26.2168,-96.4998,1012.13,11111222 
TABS,ioos:station:wmo:42045:1,2009-07-06T14:30:00Z,26.2168,-96.4998,1012.38,11111222 
TABS,ioos:station:wmo:42045:1,2009-07-06T15:00:00Z,26.2168,-96.4998,1012.44,11111222 
TABS,ioos:station:wmo:42045:1,2009-07-06T15:30:00Z,26.2168,-96.4998,1012.44,11111222 
TABS,ioos:station:wmo:42045:1,2009-07-06T16:00:00Z,26.2168,-96.4998,1012.34,11111222 
TABS,ioos:station:wmo:42045:1,2009-07-06T16:30:00Z,26.2168,-96.4998,1012.46,11111222 
TABS,ioos:station:wmo:42045:1,2009-07-06T17:00:00Z,26.2168,-96.4998,1012.22,11111222 
TABS,ioos:station:wmo:42045:1,2009-07-06T17:30:00Z,26.2168,-96.4998,1012.28,11111222 
TABS,ioos:station:wmo:42045:1,2009-07-06T18:00:00Z,26.2168,-96.4998,1011.91,11111222 
TABS,ioos:station:wmo:42045:1,2009-07-06T18:30:00Z,26.2168,-96.4998,1011.73,11111222 